CST,Max TemperatureF,Mean TemperatureF,Min TemperatureF,Max Dew PointF,MeanDew PointF,Min DewpointF,Max Humidity, Mean Humidity, Min Humidity, Max Sea Level PressureIn, Mean Sea Level PressureIn, Min Sea Level PressureIn, Max VisibilityMiles, Mean VisibilityMiles, Min VisibilityMiles, Max Wind SpeedMPH, Mean Wind SpeedMPH, Max Gust SpeedMPH,PrecipitationIn, CloudCover, Events, WindDirDegrees
2013-1-1,35,29,23,35,29,19,100,93,80,30.24,30.14,30.05,10,6,1,12,4,17,0.29,7,,351
2013-1-2,32,24,16,21,16,13,97,74,49,30.30,30.25,30.21,10,9,7,6,1,,0.00,0,,351
2013-1-3,39,28,16,27,23,16,100,85,58,30.42,30.34,30.25,10,8,5,8,1,,0.00,0,,292
2013-1-4,41,30,19,33,27,20,100,87,58,30.48,30.41,30.37,10,8,0,9,2,,0.00,1,Fog,255
2013-1-5,43,32,21,33,29,22,100,83,63,30.38,30.30,30.20,10,8,4,9,2,,0.00,5,,206
2013-1-6,41,32,22,37,30,23,100,84,63,30.41,30.26,30.15,10,9,4,14,6,18,0.00,3,,264
2013-1-7,45,32,19,28,25,19,100,84,48,30.49,30.35,30.22,10,7,3,9,1,,0.00,0,,124
2013-1-8,55,39,23,35,30,24,100,76,40,30.28,30.22,30.18,10,8,2,12,2,,0.00,0,,173
2013-1-9,58,49,40,46,40,34,100,74,59,30.44,30.36,30.23,10,10,10,10,2,,0.01,4,Rain,42
2013-1-10,65,55,45,64,54,36,100,95,61,30.42,30.12,29.87,10,7,2,20,8,28,0.81,8,Rain,110
2013-1-11,61,54,48,60,52,47,99,84,62,29.99,29.93,29.87,10,10,7,15,9,21,0.01,3,Rain-Thunderstorm,197
2013-1-12,69,61,50,67,62,50,100,98,85,29.96,29.86,29.69,10,7,1,17,7,29,1.24,7,Rain-Thunderstorm,182
2013-1-13,46,36,26,46,32,21,100,95,81,30.32,30.06,29.82,10,9,2,16,10,24,1.20,8,Rain-Thunderstorm,337
2013-1-14,28,24,21,22,19,15,87,80,72,30.44,30.38,30.33,10,10,7,12,8,17,0.00,1,,8
2013-1-15,32,27,22,29,24,20,100,85,64,30.35,30.23,30.09,10,7,2,14,6,20,0.03,6,Rain-Snow,11
2013-1-16,34,32,30,28,26,24,90,80,70,30.16,30.12,30.07,10,10,7,7,3,,0.01,3,,302
2013-1-17,45,34,24,34,28,21,100,78,61,30.50,30.27,30.11,10,9,5,17,4,25,0.00,2,,339
2013-1-18,46,34,21,30,26,21,100,70,48,30.56,30.44,30.28,10,10,5,13,3,17,0.00,0,,184
2013-1-19,56,46,36,36,32,26,74,56,41,30.29,30.17,30.06,10,10,10,23,11,32,0.00,0,,208
2013-1-20,45,37,28,36,22,9,100,57,25,30.31,30.23,30.13,10,10,10,12,6,17,0.00,0,,336
2013-1-21,34,28,22,19,12,4,72,52,37,30.36,30.30,30.23,10,10,10,15,6,21,0.00,1,,331
2013-1-22,24,20,17,7,1,-4,57,40,30,30.48,30.40,30.36,10,10,7,12,5,,0.00,5,,3
2013-1-23,45,31,17,30,20,9,91,64,42,30.37,30.26,30.15,10,10,7,10,2,,0.00,0,,237
2013-1-24,34,28,21,25,12,7,72,50,36,30.56,30.41,30.25,10,10,7,16,10,24,0.00,2,,49
2013-1-25,41,34,27,28,23,8,86,70,37,30.24,30.17,30.12,10,10,7,9,4,,0.01,4,Rain,276
2013-1-26,45,34,24,31,23,18,100,70,36,30.37,30.31,30.24,10,8,2,9,2,,0.00,0,,33
2013-1-27,52,40,28,46,36,20,100,89,68,30.33,30.21,30.08,10,7,2,9,4,17,0.14,6,Rain,115
2013-1-28,63,58,52,61,55,46,100,88,70,30.10,30.06,30.01,10,8,2,17,10,23,0.00,7,Rain,178
2013-1-29,70,62,54,60,57,53,99,78,65,30.02,29.78,29.44,10,10,3,23,12,39,0.54,6,Rain-Thunderstorm,177
2013-1-30,57,45,32,54,41,21,100,83,61,29.93,29.59,29.43,10,10,5,24,9,32,0.76,8,Rain-Thunderstorm,250
2013-1-31,40,31,21,34,23,9,97,66,56,30.34,30.07,29.95,10,10,2,18,11,31,0.00,6,Rain-Snow,271